Simultaneous Nadir Overpasses (SNOs) Predictions

Prediction of SNOs between NOAA-19 and METOP-C Satellite Orbit:

Table of predicted SNOs for the next 14.0 days since TLE Epoch: 8/28/2020
Index Date (NOAA-19) Time (NOAA-19) Lat,Lon (NOAA-19) SZA (NOAA-19 ) Date (METOP-C) Time (METOP-C) Lat,Lon (METOP-C) SZA (METOP-C ) Distance(km) Time Diff (sec)
1 09/01/2020 20:49:05 -80.14, 71.47 106.91 09/01/2020 20:50:18 -80.15, 71.41 106.89 1.33 73
2 09/01/2020 21:40:09 80.14,-121.20 73.11 09/01/2020 21:40:59 80.14,-121.33 73.12 2.53 50
3 09/01/2020 22:31:06 -80.16, 45.82 106.89 09/01/2020 22:31:40 -80.14, 45.93 106.89 2.99 34
4 09/01/2020 23:22:10 80.15,-146.85 73.13 09/01/2020 23:22:21 80.13,-146.81 73.12 2.25 11
5 09/02/2020 00:13:06 -80.14, 20.49 106.86 09/02/2020 00:13:02 -80.12, 20.45 106.88 2.40 4
6 09/02/2020 01:04:10 80.14,-172.18 73.16 09/02/2020 01:03:43 80.12,-172.29 73.13 3.11 27
7 09/02/2020 01:55:06 -80.13, -4.85 106.83 09/02/2020 01:54:23 -80.14, -4.72 106.83 2.46 43
8 09/02/2020 02:46:10 80.13, 162.49 73.19 09/02/2020 02:45:04 80.13, 162.54 73.18 1.12 66
